Home > Weather > Kailua-Kona > Past weeks

Flag for USA Past Weather in Kailua-Kona, Hawaii, USA — Yesterday and Last 2 Weeks

Now
75 °F

Mostly cloudy.


Feels Like: 76 °F
Forecast: 67 / 78 °F
Wind: 8 mph from Southeast

Location: Keahole Airport

Current Time: May 29, 2016 at 5:25:36 AM

Latest Report: May 29, 2016 at 4:53 AM


Visibility: 10 mi

Pressure: 29.96 "Hg

Humidity: 76%

Dew Point: 67 °F

Location of Kailua-KonaLocation

Past Weather in Kailua-Kona — Graph

°F

Kailua-Kona Temperature Yesterday

Maximum temperature yesterday: 85 °F (at 11:53 AM)
Minimum temperature yesterday: 76 °F (at 4:53 AM)
Average temperature yesterday: 80 °F

High & Low Weather Summary for the Past Weeks

 TemperatureHumidityPressure
High87 °F (May 20, 1:53 PM)94% (May 15, 5:18 AM)30.09 "Hg (May 15, 5:18 AM)
Low72 °F (May 22, 4:53 AM)56% (May 28, 7:53 AM)29.92 "Hg (May 17, 4:53 PM)
Average79 °F72%30.01 "Hg
* Reported May 14 3:53 AM — May 29 3:53 AM, Kailua-Kona, Weather by CustomWeather, © 2016

Note: Actual official high and low records may vary slightly from our data, if they occured in-between our weather recording intervals... More about our weather records

Advertising

Kailua-Kona Weather History for the Previous 24 Hours

Scroll right to see more
 ConditionsComfort  
Time TempWeatherWind HumidityBarometerVisibility
3:53 AM
Sun, May 29
75 °FMostly cloudy.8 mph79%29.96 "Hg10 mi
2:53 AM75 °FMostly cloudy.9 mph79%29.96 "Hg10 mi
2:26 AM75 °FMostly cloudy.12 mph83%29.96 "Hg10 mi
1:53 AM75 °FMostly cloudy.12 mph88%29.98 "Hg10 mi
1:10 AM79 °FOvercast.15 mph79%29.98 "Hg10 mi
12:46 AM79 °FLight rain. Mostly cloudy.18 mph79%29.98 "Hg10 mi
11:53 PM
Sat, May 28
79 °FMostly cloudy.15 mph77%29.99 "Hg10 mi
10:53 PM79 °FMostly cloudy.16 mph79%30.00 "Hg10 mi
9:53 PM79 °FPassing clouds.17 mph79%30.00 "Hg10 mi
8:53 PM79 °FPassing clouds.13 mph79%29.99 "Hg10 mi
8:20 PM79 °FPassing clouds.12 mph79%29.99 "Hg10 mi
8:00 PM79 °FMostly cloudy.10 mph79%29.98 "Hg10 mi
7:29 PM79 °FPassing clouds.10 mph79%29.97 "Hg10 mi
6:53 PM80 °FPartly sunny.13 mph76%29.96 "Hg10 mi
5:53 PM82 °FSunny.12 mph72%29.95 "Hg10 mi
4:53 PM83 °FScattered clouds.14 mph68%29.94 "Hg10 mi
3:53 PM84 °FSunny.13 mph67%29.94 "Hg10 mi
2:53 PM84 °FSunny.13 mph65%29.96 "Hg10 mi
1:53 PM85 °FScattered clouds.13 mph68%29.97 "Hg10 mi
12:53 PM85 °FScattered clouds.14 mph63%29.98 "Hg10 mi
11:53 AM85 °FScattered clouds.14 mph63%30.00 "Hg10 mi
10:53 AM84 °FScattered clouds.12 mph65%30.01 "Hg10 mi
9:53 AM82 °FScattered clouds.9 mph65%30.02 "Hg10 mi
8:53 AM83 °FOvercast.9 mph57%30.02 "Hg10 mi
7:53 AM81 °FPartly sunny.3 mph56%30.01 "Hg10 mi
6:53 AM78 °FOvercast.5 mph62%30.01 "Hg10 mi
5:53 AM77 °FScattered clouds.7 mph64%29.99 "Hg10 mi
Weather by CustomWeather, © 2016

See weather overviewHow to use our weather pages